Temperature
12 12 11 11 11 11 11 11 11 10 10 10 10 10 10 10 10 10 9 9 9 9 9 8 8 8 8 8 8 8 8 8 8 8 8 8 8 7 7 7 7 6 6
12 12 11 11 11 11 11 11 10 10 10 10 10 9 9 10 10 9 9 9 9 9 9 8 8 8 8 8 8 8 8 8 8 8 8 7 7 7 7 6 6 6 6
12 12 11 11 11 11 10 10 10 10 10 9 9 9 9 9 9 9 9 9 9 9 9 9 9 8 8 8 8 8 8 8 8 8 8 7 7 7 6 6 6 6 6
12 11 11 11 11 10 10 10 10 10 9 9 9 9 9 9 9 9 9 9 9 9 9 9 9 8 8 8 8 8 8 8 8 8 7 7 7 7 6 6 6 5 5
11 11 11 11 11 10 10 10 10 10 9 9 9 9 9 9 9 9 9 9 9 9 9 9 9 9 8 8 8 8 8 8 7 7 7 7 7 6 6 6 5 5 5
11 11 11 11 11 10 10 10 10 9 9 9 9 9 9 9 9 9 9 9 9 9 9 9 9 9 9 8 8 8 8 7 7 7 7 7 6 6 6 5 5 5 5
11 11 11 11 11 10 10 10 9 9 9 9 9 8 9 9 9 9 9 9 9 9 9 9 9 9 9 8 8 8 8 7 7 7 7 6 6 6 5 5 5 4 4
11 11 11 11 11 10 10 10 10 9 9 9 9 8 8 9 9 9 9 9 9 9 9 9 9 9 9 8 8 8 8 7 7 7 6 6 6 5 5 5 4 4 4
12 12 11 11 11 11 10 10 10 9 9 9 9 9 9 9 9 9 9 9 9 9 9 9 9 9 8 8 8 8 8 7 7 7 6 6 5 5 4 4 4 3 3
12 12 11 11 11 11 11 10 10 10 9 9 9 9 9 9 9 9 9 10 9 9 9 9 9 9 8 8 8 8 7 7 7 7 6 6 5 5 4 4 3 3 3
12 12 11 11 11 11 11 10 10 10 10 9 9 9 9 9 9 9 9 10 9 9 9 9 9 9 8 8 8 8 7 7 7 6 6 5 5 4 4 3 3 3 3
12 12 12 11 11 11 11 11 10 10 10 9 9 9 9 9 9 9 9 9 9 9 9 9 9 9 8 8 8 7 7 7 7 6 6 5 5 4 4 3 3 2 2
13 13 12 12 11 11 11 11 10 10 10 10 9 9 9 9 9 9 9 9 9 9 9 9 9 8 8 8 8 7 7 6 6 6 5 5 4 4 3 3 2 2 2
14 14 13 12 12 11 11 11 10 10 10 10 9 9 9 9 9 9 9 8 8 8 8 9 8 8 8 7 7 7 6 6 6 5 5 4 4 3 3 2 2 1 1
14 14 13 13 12 12 11 11 10 10 10 10 9 9 9 9 9 9 8 8 8 8 8 8 8 8 7 7 7 6 6 6 5 5 4 4 3 2 2 1 1 1 0
14 14 13 13 12 12 11 11 10 10 10 10 10 9 9 9 9 9 8 8 8 7 7 8 7 7 7 6 6 6 5 5 5 4 4 3 2 2 1 1 0 0 -0
14 13 13 13 12 12 11 11 11 10 10 10 10 9 9 9 9 9 8 8 8 7 7 7 7 7 6 6 6 5 5 4 4 3 3 2 2 1 1 0 -0 -1 -1
13 13 13 13 12 12 11 11 11 10 10 10 10 9 9 9 9 9 8 8 8 7 7 7 7 6 6 5 5 5 4 4 3 3 2 2 1 1 0 -0 -1 -1 -2
13 13 12 12 12 12 11 11 11 11 10 10 10 9 9 9 9 9 8 8 8 7 7 6 6 6 5 5 5 4 4 3 3 2 2 1 0 -0 -1 -1 -1 -2 -2
12 12 12 12 12 12 11 11 11 10 10 10 10 9 9 9 9 8 8 8 7 7 7 6 6 5 5 4 4 3 3 3 2 2 1 0 -0 -1 -1 -2 -2 -3 -3
12 12 12 12 11 11 11 11 11 10 10 10 9 9 9 9 9 8 8 8 7 7 6 6 5 5 4 4 3 3 2 2 1 1 0 -0 -1 -1 -2 -2 -3 -3 -4
12 12 12 11 11 11 11 11 10 10 10 9 9 9 9 8 8 8 7 7 7 6 6 5 5 4 3 3 2 2 1 1 0 0 -0 -1 -1 -2 -2 -3 -3 -4 -4
11 11 11 11 11 11 11 10 10 10 9 9 9 9 8 8 8 7 7 7 6 6 5 5 4 3 3 2 2 1 1 -0 -1 -1 -1 -1 -2 -2 -3 -3 -4 -4 -5
11 11 11 11 11 10 10 10 9 9 9 9 9 8 8 8 7 7 7 6 6 5 5 4 4 3 2 1 1 0 -0 -1 -1 -2 -2 -2 -2 -3 -3 -4 -4 -5 -5
11 11 11 10 10 10 10 10 9 9 9 8 8 8 8 7 7 7 6 6 5 5 4 3 3 2 2 1 0 -0 -1 -1 -1 -2 -3 -4 -4 -4 -3 -4 -5 -5 -6
10 10 10 10 10 10 10 9 9 9 8 8 8 8 7 7 6 6 6 5 5 4 4 3 2 2 1 0 -0 -1 -2 -2 -3 -3 -4 -4 -5 -5 -5 -5 -5 -6 -6
Wind_Speed
8 8 7 9 9 10 10 9 8 8 8 8 8 7 6 6 5 5 5 6 6 6 6 6 6 7 7 7 7 7 7 7 7 8 8 9 9 10 10 11 11 12 13
10 8 7 7 8 10 10 9 8 6 5 6 5 5 5 5 4 4 4 5 5 5 5 5 5 5 5 5 5 5 5 5 6 7 7 8 8 9 9 10 11 11 12
14 10 8 6 8 10 11 9 7 7 5 4 4 4 4 4 4 3 3 4 4 4 3 3 3 3 3 3 3 4 4 4 5 6 6 7 7 8 9 9 10 11 12
16 12 8 7 10 11 9 6 5 4 4 4 3 2 2 3 3 3 3 2 2 2 2 2 2 1 1 2 2 2 3 3 4 5 6 6 7 8 9 9 10 11 12
18 13 8 8 12 8 6 6 4 4 4 4 3 2 2 1 1 2 2 2 2 1 0 1 2 2 2 2 2 2 3 3 4 5 6 6 7 8 9 9 10 11 12
17 14 9 10 11 7 6 5 5 3 4 4 4 3 2 1 0 1 2 2 2 3 3 2 1 2 2 3 4 4 4 5 5 6 6 7 8 9 9 10 11 12 13
17 13 9 9 9 8 8 8 5 5 3 3 3 2 2 1 1 1 2 2 3 4 4 4 3 3 3 4 5 5 6 6 7 7 8 8 9 10 11 11 12 13 14
17 15 11 10 9 8 9 8 6 4 3 3 4 3 1 3 2 1 1 2 3 3 4 5 5 5 5 5 6 6 7 8 9 9 9 10 10 11 12 12 13 14 15
17 15 14 11 10 10 10 9 9 8 5 3 2 4 4 3 2 2 2 2 3 2 3 5 6 7 7 7 7 8 8 9 10 10 11 11 12 12 13 13 14 15 15
16 16 15 13 12 10 11 11 9 6 7 5 2 1 2 4 3 1 2 2 3 4 4 4 5 7 8 8 9 9 9 10 11 11 11 12 12 13 14 14 14 15 16
14 15 15 14 13 11 11 11 10 8 7 6 5 3 2 2 2 2 2 3 2 3 3 4 5 6 8 8 9 10 10 10 11 11 12 12 12 13 14 14 15 16 17
12 15 15 14 13 11 12 12 12 11 9 7 6 5 5 4 4 4 3 3 3 3 2 2 3 5 7 8 9 9 9 10 11 11 11 11 12 12 13 14 15 16 17
12 16 15 14 13 12 12 11 12 11 11 10 9 6 6 5 4 4 4 3 2 2 2 2 2 4 5 6 7 7 8 9 10 10 10 10 11 12 13 14 15 16 17
14 15 16 14 14 13 13 12 11 11 10 10 10 9 6 5 5 5 5 4 1 2 2 4 1 2 4 4 5 5 6 7 8 9 10 11 11 12 13 14 15 16 17
12 15 16 15 14 14 14 13 11 11 11 11 10 10 7 6 5 5 4 4 4 3 4 3 2 1 2 3 4 3 5 7 8 9 10 11 11 12 12 14 14 15 17
14 16 16 16 15 14 14 13 11 11 12 10 8 9 9 6 5 5 5 4 4 5 4 3 2 1 0 1 3 3 5 7 8 9 10 10 10 11 12 13 14 15 17
15 17 17 16 16 15 15 14 12 13 13 11 10 10 10 8 6 5 5 4 4 4 5 3 1 0 0 1 3 3 4 5 7 9 10 10 10 11 12 12 14 15 17
16 16 16 16 16 15 15 15 14 14 14 13 12 11 10 7 7 6 5 5 5 5 5 5 2 1 1 1 2 2 4 5 6 8 9 9 10 11 11 12 13 15 16
15 15 16 17 17 16 16 15 14 14 13 13 12 12 11 9 9 6 6 6 5 4 3 3 3 1 1 0 1 2 3 4 5 6 8 9 10 11 11 12 13 14 15
15 16 16 16 16 15 15 14 13 13 12 11 10 10 10 10 10 9 7 6 5 4 3 2 2 1 1 0 1 2 3 3 4 4 7 9 10 10 11 12 13 14 15
15 15 14 14 14 13 13 14 13 12 12 10 9 9 9 10 10 9 7 6 6 4 3 2 2 1 1 0 1 1 2 3 3 2 4 5 6 6 8 11 12 14 14
14 14 14 14 14 12 16 18 15 12 11 11 10 8 7 8 9 10 10 9 8 6 5 3 2 2 2 2 1 1 1 2 3 2 3 4 3 4 6 8 12 14 14
13 14 14 14 13 14 18 19 17 12 10 10 10 9 7 7 8 7 8 8 6 6 6 5 4 3 2 2 1 1 1 2 3 2 2 3 3 4 6 9 12 13 15
13 12 12 13 12 12 18 19 18 12 9 9 9 9 9 8 8 9 8 7 5 4 4 3 3 2 1 1 2 1 1 1 2 1 2 2 3 4 7 9 10 13 15
11 11 11 12 12 12 17 19 17 10 9 8 7 8 9 9 13 14 10 9 7 5 7 9 8 7 6 5 5 3 2 2 2 2 2 2 3 5 4 3 8 13 16
11 11 10 10 12 12 17 19 18 10 10 8 7 7 11 12 15 14 10 9 8 5 5 6 7 7 7 7 7 4 2 1 1 2 2 3 3 4 5 3 5 10 12
Wind_Direction
147 142 139 137 134 132 127 122 117 114 112 116 121 121 115 110 101 86 75 80 89 96 99 95 92 88 82 78 71 64 58 54 47 45 38 33 30 26 21 15 14 13 10
153 149 146 143 143 143 137 132 128 121 115 120 118 124 124 120 111 98 87 79 77 85 95 93 87 81 81 76 69 59 50 43 41 37 30 25 20 16 12 9 7 5 2
158 155 153 153 153 147 136 126 118 114 111 111 109 119 125 126 124 116 105 94 82 72 76 86 81 74 67 61 59 50 39 31 25 20 15 10 6 3 1 359 358 357 355
163 159 159 160 156 148 140 131 125 115 115 117 118 113 112 122 134 142 133 122 108 86 62 48 35 20 19 12 20 19 12 3 357 355 354 353 352 352 350 349 349 348 346
168 165 164 162 156 148 143 143 131 129 132 128 120 98 82 101 140 161 167 176 175 169 144 4 356 340 327 323 321 322 326 329 330 333 336 337 339 339 339 338 338 338 336
171 167 165 162 158 152 150 147 135 119 127 131 107 77 41 17 75 199 219 218 220 224 227 245 283 305 309 303 303 299 303 309 315 320 324 326 327 328 327 327 328 328 328
174 171 168 164 165 166 163 151 134 127 121 127 99 58 7 354 265 248 237 230 238 239 235 236 242 256 272 284 292 291 293 301 306 308 311 314 315 316 318 320 321 322 323
177 179 172 174 172 166 161 161 146 136 136 150 130 113 17 328 302 253 243 233 240 242 239 236 235 241 252 265 275 287 290 295 299 301 303 306 308 311 314 315 317 318 320
182 181 179 175 175 174 176 174 165 154 155 173 157 146 154 218 274 303 259 243 240 235 239 239 239 243 248 256 266 275 283 286 291 296 299 301 304 307 309 313 315 317 320
184 183 180 179 179 180 178 179 174 163 154 166 165 125 141 150 156 288 305 272 248 239 238 236 240 245 248 252 260 268 276 279 284 291 297 300 303 306 310 313 317 319 320
185 184 183 182 183 183 181 178 175 173 168 167 166 153 131 103 132 159 262 293 292 252 236 234 239 245 248 251 258 266 274 278 283 289 295 299 303 306 310 314 316 317 317
188 187 185 186 186 184 183 183 182 182 182 175 174 167 163 164 181 176 210 246 264 275 259 243 237 245 248 251 257 268 273 278 282 288 293 299 303 307 310 312 314 315 315
191 192 188 188 188 186 184 181 182 188 186 185 187 189 187 185 165 166 178 214 243 278 295 275 241 245 251 256 261 272 276 282 287 290 295 299 302 305 308 311 313 314 314
193 186 187 189 188 185 184 183 186 190 190 194 196 192 193 197 180 175 173 171 220 284 281 265 273 247 251 253 265 273 278 284 291 292 294 297 299 302 305 308 310 311 313
185 182 186 187 186 185 184 183 190 191 190 197 198 196 199 200 193 190 178 173 180 233 265 254 256 295 266 263 278 285 280 289 295 294 295 297 300 303 307 310 311 313 314
182 181 185 187 185 185 185 186 189 189 191 196 194 196 203 200 193 188 187 186 187 197 239 241 223 245 20 328 307 300 286 299 302 300 300 301 303 307 309 311 312 313 314
182 184 186 186 187 187 187 189 191 187 193 195 193 196 203 196 193 193 186 185 192 189 229 254 220 231 165 327 342 324 304 307 307 304 306 307 310 312 310 312 315 317 317
185 186 184 185 188 188 188 190 191 190 193 195 195 194 201 195 194 191 188 194 199 197 208 241 249 242 245 299 322 323 326 323 312 309 312 314 314 315 317 318 320 320 321
185 183 183 187 188 188 189 191 192 192 194 195 193 195 197 189 197 193 190 196 198 194 198 216 243 230 235 336 329 319 326 327 323 316 318 317 318 323 324 324 322 322 324
185 184 186 188 187 186 188 189 189 189 190 190 190 192 192 192 196 191 192 193 183 179 181 199 229 234 244 329 335 309 318 324 320 326 327 322 324 328 327 326 325 327 328
185 183 182 183 183 184 186 184 185 184 183 182 183 186 188 187 187 183 181 179 172 175 174 186 208 218 242 304 294 291 298 317 309 326 327 320 321 325 328 328 327 328 331
181 179 181 181 182 187 180 178 178 180 179 178 177 175 171 171 169 164 161 160 162 168 180 178 189 208 241 243 252 280 292 334 308 338 334 311 324 312 319 320 325 331 334
176 179 180 179 182 181 173 173 172 173 172 173 172 168 161 161 155 148 142 135 135 138 151 163 171 199 211 214 197 248 266 270 271 312 336 298 322 309 317 319 327 332 335
174 174 174 175 175 174 167 165 160 161 159 163 166 164 159 155 152 141 131 121 108 101 121 125 144 151 142 138 139 164 245 294 299 325 6 300 312 307 315 316 324 336 339
169 167 165 167 168 166 161 158 152 155 151 151 150 151 152 149 146 139 134 128 116 97 92 100 99 93 85 82 91 80 48 22 332 324 9 329 311 313 306 301 319 332 335
162 158 156 160 162 164 160 156 152 155 152 147 140 143 145 145 147 144 143 141 139 135 115 98 83 72 66 65 66 71 94 57 346 308 344 344 323 336 320 302 308 318 324
Height
1507 1511 1514 1517 1520 1523 1525 1528 1530 1533 1535 1537 1539 1541 1542 1543 1544 1545 1546 1547 1548 1548 1549 1549 1549 1548 1548 1547 1546 1546 1545 1544 1543 1542 1541 1540 1539 1537 1536 1534 1533 1531 1529
1506 1510 1513 1516 1520 1522 1525 1528 1530 1532 1535 1537 1539 1541 1542 1543 1544 1545 1546 1547 1548 1548 1549 1549 1549 1549 1548 1548 1547 1546 1545 1544 1543 1542 1541 1540 1538 1537 1535 1534 1532 1530 1528
1505 1508 1512 1515 1519 1522 1524 1527 1530 1532 1535 1537 1539 1540 1542 1543 1544 1545 1546 1547 1548 1548 1549 1549 1549 1549 1548 1548 1547 1546 1545 1544 1543 1542 1541 1539 1538 1536 1535 1533 1531 1529 1527
1503 1507 1511 1514 1517 1520 1523 1526 1529 1531 1534 1536 1538 1540 1541 1543 1544 1545 1546 1547 1547 1548 1548 1548 1548 1548 1548 1547 1546 1546 1545 1544 1543 1541 1540 1538 1537 1535 1534 1532 1530 1528 1526
1501 1505 1509 1512 1516 1519 1522 1525 1528 1530 1533 1535 1538 1539 1541 1542 1543 1544 1545 1546 1547 1547 1547 1547 1547 1547 1547 1546 1546 1545 1544 1543 1542 1540 1539 1537 1535 1534 1532 1530 1528 1526 1524
1498 1502 1507 1510 1514 1517 1520 1523 1527 1530 1532 1535 1537 1538 1540 1541 1542 1543 1544 1545 1545 1546 1546 1546 1546 1546 1546 1545 1544 1543 1542 1541 1540 1539 1537 1535 1534 1532 1530 1528 1526 1524 1522
1495 1499 1503 1507 1511 1514 1518 1522 1525 1528 1530 1533 1535 1537 1539 1540 1540 1541 1542 1543 1544 1544 1544 1545 1545 1544 1544 1543 1543 1542 1541 1539 1538 1536 1535 1533 1531 1529 1528 1526 1524 1521 1519
1491 1496 1500 1504 1508 1512 1516 1519 1522 1525 1528 1531 1533 1535 1537 1539 1538 1539 1540 1541 1542 1542 1542 1543 1543 1542 1542 1541 1541 1540 1538 1537 1535 1534 1532 1530 1529 1527 1525 1523 1520 1518 1516
1487 1492 1496 1501 1505 1508 1512 1516 1520 1523 1525 1529 1531 1534 1535 1535 1536 1537 1537 1538 1539 1540 1540 1540 1540 1540 1539 1539 1538 1537 1535 1534 1532 1531 1529 1527 1525 1523 1521 1519 1517 1515 1512
1483 1488 1492 1497 1501 1505 1509 1513 1517 1520 1523 1526 1528 1531 1533 1534 1535 1535 1536 1536 1537 1537 1537 1538 1538 1537 1537 1536 1535 1534 1532 1531 1529 1527 1525 1523 1521 1520 1518 1515 1513 1510 1508
1478 1483 1488 1493 1497 1501 1505 1509 1513 1517 1520 1523 1525 1527 1530 1531 1533 1534 1534 1534 1535 1535 1535 1535 1535 1534 1534 1533 1532 1530 1529 1527 1525 1523 1521 1519 1517 1515 1513 1511 1508 1506 1503
1473 1478 1483 1488 1492 1497 1501 1505 1509 1513 1516 1519 1522 1525 1527 1529 1530 1531 1532 1531 1532 1532 1532 1532 1531 1531 1530 1529 1528 1527 1525 1523 1521 1519 1517 1515 1513 1510 1508 1506 1503 1501 1498
1466 1471 1477 1482 1487 1492 1497 1501 1505 1509 1512 1515 1518 1521 1523 1525 1527 1528 1529 1529 1529 1529 1528 1529 1528 1527 1527 1526 1524 1523 1521 1519 1517 1515 1513 1510 1508 1506 1503 1501 1498 1495 1492
1461 1466 1472 1477 1482 1487 1492 1497 1501 1505 1508 1511 1514 1517 1519 1521 1523 1525 1526 1526 1526 1525 1525 1525 1524 1524 1523 1522 1520 1519 1517 1515 1512 1510 1508 1505 1503 1501 1498 1495 1492 1489 1487
1456 1462 1467 1473 1478 1483 1487 1492 1496 1500 1503 1507 1510 1513 1515 1517 1519 1520 1522 1523 1523 1522 1521 1521 1521 1520 1519 1518 1516 1514 1512 1510 1508 1505 1503 1500 1498 1495 1492 1490 1487 1484 1481
1451 1457 1462 1467 1473 1477 1482 1487 1491 1495 1498 1502 1505 1508 1510 1512 1514 1516 1517 1518 1519 1519 1517 1516 1516 1516 1514 1513 1512 1510 1507 1505 1503 1500 1498 1495 1492 1490 1487 1484 1481 1478 1475
1445 1451 1456 1462 1467 1472 1476 1481 1485 1489 1493 1496 1500 1502 1505 1508 1509 1511 1512 1513 1514 1514 1513 1512 1512 1511 1510 1508 1507 1505 1503 1500 1498 1495 1493 1490 1487 1484 1481 1479 1476 1473 1470
1439 1445 1451 1456 1462 1466 1471 1475 1479 1483 1487 1490 1494 1497 1500 1502 1504 1506 1507 1508 1509 1509 1509 1507 1507 1506 1505 1504 1502 1500 1498 1496 1493 1491 1488 1485 1482 1479 1476 1474 1470 1467 1464
1433 1439 1445 1450 1456 1461 1465 1470 1474 1478 1482 1485 1488 1491 1494 1497 1499 1501 1502 1503 1504 1504 1504 1503 1501 1501 1500 1499 1497 1496 1494 1491 1489 1486 1483 1480 1478 1475 1471 1468 1465 1462 1459
1427 1433 1439 1444 1450 1455 1460 1464 1469 1472 1476 1480 1483 1486 1489 1492 1494 1496 1497 1498 1499 1499 1499 1498 1497 1496 1495 1494 1493 1491 1488 1486 1484 1482 1479 1476 1473 1470 1467 1463 1460 1457 1454
1421 1427 1433 1439 1444 1449 1454 1458 1463 1467 1471 1475 1478 1481 1484 1487 1489 1491 1492 1493 1494 1494 1494 1493 1493 1492 1491 1489 1488 1486 1484 1482 1479 1477 1475 1472 1469 1466 1463 1459 1456 1453 1449
1416 1422 1428 1433 1438 1443 1448 1453 1458 1462 1466 1469 1473 1476 1479 1482 1484 1486 1487 1488 1489 1489 1489 1489 1488 1488 1487 1486 1484 1482 1480 1477 1474 1473 1470 1468 1465 1462 1458 1455 1452 1448 1445
1410 1416 1422 1428 1433 1438 1443 1448 1453 1457 1461 1465 1468 1471 1474 1477 1479 1481 1483 1484 1485 1485 1486 1486 1485 1484 1483 1482 1481 1479 1477 1474 1472 1469 1466 1463 1461 1458 1454 1451 1448 1445 1441
1405 1411 1416 1422 1428 1433 1439 1444 1448 1453 1457 1460 1464 1467 1470 1472 1475 1477 1479 1480 1481 1481 1482 1481 1481 1480 1480 1479 1478 1476 1474 1472 1469 1466 1463 1459 1456 1453 1451 1448 1444 1441 1437
1400 1406 1412 1418 1423 1429 1434 1439 1444 1448 1453 1456 1460 1463 1466 1468 1471 1473 1475 1476 1477 1478 1478 1478 1478 1477 1476 1475 1474 1473 1471 1468 1465 1463 1460 1457 1452 1449 1446 1444 1442 1438 1434
1396 1402 1408 1414 1419 1424 1430 1435 1440 1444 1448 1452 1456 1459 1462 1465 1467 1469 1471 1472 1474 1474 1475 1475 1475 1474 1473 1472 1471 1470 1467 1465 1462 1460 1457 1455 1451 1447 1442 1440 1438 1435 1430